Regional Weather Roundup
Issued by NWS Midland/Odessa, TX

Skip options and go directly to product.
Home | Oldest Version | Previous Version | Current Version | All | Text Only | Save Text | Print | Product List | Glossary On

Skip product version selection by date and time.   
725
ASUS44 KMAF 190110
RWRMAF
MIDLAND AREA WEATHER ROUNDUP
NATIONAL WEATHER SERVICE MIDLAND TX
800 PM CDT FRI APR 18 2014

...IN SOUTHWEST TEXAS AND SOUTHEAST NEW MEXICO...

CITY           SKY/WX    TMP DP  RH WIND       PRES   REMARKS
ALPINE         MOCLDY    69  49  48 SE12      30.12F
ANDREWS        FAIR      72  44  37 SE16      30.07S
ARTESIA        PTCLDY    72  41  33 SE18      30.02S
BIG SPRING     PTCLDY    74  44  34 E9        30.10S
CARLSBAD       PTCLDY    75  42  30 SE15      30.01S
DRYDEN           N/A     73  50  44 E17G28    30.03S
FORT STOCKTON  CLEAR     72  47  40 SE20G25   30.04S
GUAD PASS      CLOUDY    66  40  38 E29       30.09F
HOBBS          PTCLDY    70  41  35 SE15      30.07S
MARFA          MOCLDY    70  46  43 SE15      30.11R
MIDLAND AIRPK  CLEAR     75  44  32 SE15      30.06F
MIDLAND INTL   CLEAR     74  45  35 SE18      30.05F
ODESSA         CLEAR     74  44  34 SE14G24   30.05F
PECOS          PTCLDY    75  47  36 E21       29.99F
PRESIDIO       FAIR      82  50  32 E16G25    29.93S
SEMINOLE       PTCLDY    71  42  36 SE12      30.08S
SNYDER         CLOUDY    71  45  39 SE10      30.10S
WINK           PTCLDY    75  46  35 SE20      30.01S
$$
...OTHER STATIONS IN TEXAS...

CITY           SKY/WX    TMP DP  RH WIND       PRES   REMARKS
ABILENE        MOCLDY    70  44  39 SE12      30.10F
AMARILLO       CLOUDY    68  43  40 S22       30.06S
AUSTIN         PTCLDY    70  55  59 E7        30.09F
BROWNSVILLE    PTCLDY    68  60  75 NE8       30.11R
CORPUS CHRISTI CLOUDY    71  56  58 SE9       30.09S
DALLAS FTW     MOCLDY    72  45  37 SE3       30.12S
DEL RIO        PTCLDY    77  51  40 SE12      30.03S
EL PASO        LGT RAIN  77  36  22 S13G30    29.98R
HOUSTON INT    PTCLDY    72  53  51 NE7       30.10R
LUBBOCK        CLOUDY    67  46  47 S16       30.09R
SAN ANGELO     MOCLDY    74  46  36 E13       30.07S
SAN ANTONIO    MOCLDY    73  55  53 E10       30.08F
WACO           MOCLDY    69  53  56 E3        30.12S
WICHITA FALLS  NOT AVBL
$$
...OTHER LOCATIONS IN NEW MEXICO...

CITY           SKY/WX    TMP DP  RH WIND       PRES   REMARKS
ALAMAGORDO     CLOUDY    75  32  20 SE13      29.98S
ALBUQUERQUE    CLOUDY    73  20  13 S25G33    30.00S
CANNON AFB     NOT AVBL
CLOVIS         CLOUDY    64  43  45 S15       30.11R
HOLLOMAN AFB   CLOUDY    77  36  22 SE18      29.96S
ROSWELL        MOCLDY    73  45  36 S17       30.02F
RUIDOSO        MOCLDY    59  37  44 SE22      30.16F
SANTA FE       MOCLDY    69  18  14 VRB6      30.04S
TRUTH OR CONSE CLOUDY    72  26  18 SW16G23   30.01R
TUCUMCARI      CLOUDY    70  40  33 S22G31    29.99S
$$

USA.gov is the U.S. government's official web portal to all federal, state and local government web resources and services.